GW0702 Weather Reports


time (UTC)temp
C
wind
direction
speed
KPH
gust
KPH
rain 1hr
cm
rain 24hr
cm
rain mn
cm
humidity
%
barometer
mb
20260906205913 28 70 8.0 19.3 0.00 0.56 0.56 67 1016.4
20260906205409 28 23 1.6 14.5 0.00 0.56 0.56 69 1016.2
20260906204905 27 80 9.7 17.7 0.00 0.56 0.56 69 1016.3
20260906204403 27 117 14.5 24.1 0.00 0.56 0.56 70 1016.4
20260906203902 27 128 11.3 19.3 0.00 0.56 0.56 70 1016.8
20260906203353 27 134 17.7 20.9 0.00 0.56 0.56 70 1016.8
20260906202850 27 137 9.7 14.5 0.00 0.56 0.56 69 1017.0
20260906202350 27 125 9.7 12.9 0.00 0.56 0.56 73 1017.1
20260906201849 26 117 24.1 24.1 0.00 0.56 0.56 72 1017.1
20260906201344 26 104 4.8 16.1 0.00 0.56 0.56 74 1017.3
20260906200839 25 145 9.7 22.5 0.00 0.56 0.56 77 1017.1
20260906200336 25 125 14.5 24.1 0.00 0.56 0.56 78 1017.4
20260906195830 26 116 16.1 22.5 0.00 0.56 0.56 77 1017.6
20260906195327 26 138 11.3 16.1 0.00 0.56 0.56 74 1017.4
20260906194822 26 104 9.7 12.9 0.00 0.56 0.56 76 1017.6
20260906194318 25 135 12.9 17.7 0.00 0.56 0.56 78 1017.7
20260906193813 25 38 4.8 12.9 0.00 0.56 0.56 79 1017.5
20260906193308 23 130 6.4 17.7 0.00 0.56 0.56 91 1017.5
20260906192803 22 133 4.8 17.7 0.00 0.56 0.56 94 1017.7
20260906192258 22 46 8.0 9.7 0.00 0.56 0.56 94 1018.0
20260906191757 22 71 0.0 6.4 0.00 0.56 0.56 94 1018.5
20260906191251 22 68 6.4 14.5 0.00 0.56 0.56 94 1018.5
20260906190746 21 206 3.2 8.0 0.00 0.56 0.56 94 1018.8
20260906190240 21 206 8.0 11.3 0.30 0.56 0.56 96 1018.8
20260906185739 21 204 8.0 14.5 1.93 0.56 0.56 97 1018.6
20260906185238 21 215 6.4 14.5 2.69 0.46 0.46 97 1018.2
20260906184733 21 212 9.7 30.6 0.43 0.08 0.08 95 1018.3
20260906184229 22 150 12.9 27.4 0.05 0.00 0.00 95 1018.7
20260906183724 22 157 6.4 22.5 0.00 0.00 0.00 94 1019.0
20260906183221 22 148 8.0 14.5 0.00 0.00 0.00 93 1018.7
20260906182720 23 147 12.9 30.6 0.00 0.00 0.00 89 1018.6
20260906182216 25 102 8.0 40.2 0.00 0.00 0.00 81 1018.2
20260906181711 26 124 9.7 17.7 0.00 0.00 0.00 77 1017.7
20260906181208 28 136 12.9 20.9 0.00 0.00 0.00 71 1017.7
20260906180708 28 105 3.2 17.7 0.00 0.00 0.00 67 1017.9
20260906180203 28 141 4.8 17.7 0.00 0.00 0.00 66 1017.9
20260906175700 28 141 8.0 20.9 0.00 0.00 0.00 71 1017.9
20260906175156 28 349 3.2 20.9 0.00 0.00 0.00 71 1017.9
20260906174654 27 19 6.4 14.5 0.00 0.00 0.00 76 1018.2
20260906174149 27 53 4.8 22.5 0.00 0.00 0.00 77 1018.3
20260906173645 26 41 3.2 11.3 0.00 0.00 0.00 77 1018.0
20260906173140 25 49 8.0 12.9 0.00 0.00 0.00 82 1018.6
20260906172639 24 19 3.2 24.1 0.00 0.00 0.00 85 1018.9
20260906172135 25 307 9.7 9.7 0.00 0.00 0.00 84 1018.9
20260906171634 24 19 3.2 8.0 0.00 0.00 0.00 84 1018.9
20260906171130 23 16 6.4 14.5 0.00 0.00 0.00 85 1018.5
20260906170626 23 2 12.9 16.1 0.00 0.00 0.00 84 1018.1
20260906170125 25 320 24.1 29.0 0.00 0.00 0.00 81 1018.3
20260906165622 27 14 0.0 4.8 0.00 0.00 0.00 79 1018.6
20260906165117 27 337 3.2 4.8 0.00 0.00 0.00 77 1018.5
20260906164616 28 117 3.2 4.8 0.00 0.00 0.00 76 1018.2
20260906164112 28 212 0.0 6.4 0.00 0.00 0.00 75 1018.0
20260906163607 28 132 3.2 4.8 0.00 0.00 0.00 75 1017.9
20260906163103 28 270 0.0 1.6 0.00 0.00 0.00 75 1018.0
20260906162600 28 142 3.2 8.0 0.00 0.00 0.00 74 1018.0
20260906162054 28 157 0.0 3.2 0.00 0.00 0.00 74 1017.9
20260906161544 28 157 4.8 4.8 0.00 0.00 0.00 76 1017.5
20260906161043 27 139 3.2 4.8 0.00 0.00 0.00 79 1017.4
20260906160542 27 132 3.2 4.8 0.00 0.00 0.00 79 1017.2
20260906160041 27 93 4.8 4.8 0.00 0.00 0.00 78 1017.0
20260906155538 27 135 3.2 4.8 0.00 0.00 0.00 76 1017.1
20260906155034 27 154 1.6 6.4 0.00 0.00 0.00 77 1017.0
20260906154524 26 270 0.0 1.6 0.00 0.00 0.00 79 1017.2
20260906154022 26 352 0.0 0.0 0.00 0.00 0.00 80 1017.1
20260906153521 26 261 0.0 0.0 0.00 0.00 0.00 80 1017.2
20260906153017 26 123 0.0 3.2 0.00 0.00 0.00 80 1017.2
20260906152511 26 188 0.0 3.2 0.00 0.00 0.00 80 1017.0
20260906152010 25 234 0.0 3.2 0.00 0.00 0.00 82 1016.9
20260906151506 25 123 0.0 6.4 0.00 0.00 0.00 83 1016.7
20260906151001 26 120 1.6 3.2 0.00 0.00 0.00 82 1016.9
20260906150456 24 192 0.0 1.6 0.00 0.00 0.00 85 1016.9
20260906145956 24 187 1.6 3.2 0.00 0.00 0.00 85 1017.1
20260906145455 24 199 0.0 3.2 0.00 0.00 0.00 85 1017.0
20260906144956 24 220 0.0 3.2 0.00 0.00 0.00 85 1017.2
20260906144450 25 278 1.6 4.8 0.00 0.00 0.00 84 1017.2
20260906143945 25 346 0.0 4.8 0.00 0.00 0.00 84 1017.0
20260906143441 25 236 0.0 4.8 0.00 0.00 0.00 85 1017.1
20260906142937 23 209 1.6 3.2 0.00 0.00 0.00 88 1017.1
20260906142431 23 328 0.0 3.2 0.00 0.00 0.00 90 1017.1
20260906141926 22 311 3.2 4.8 0.00 0.00 0.00 91 1017.2
20260906141425 22 174 1.6 1.6 0.00 0.00 0.00 91 1017.4
20260906140920 22 352 3.2 4.8 0.00 0.00 0.00 92 1017.5
20260906140414 21 353 1.6 6.4 0.00 0.00 0.00 94 1017.5
20260906135912 21 0 3.2 4.8 0.00 0.00 0.00 94 1017.6
20260906135406 21 353 0.0 3.2 0.00 0.00 0.00 94 1017.7
20260906134902 21 352 3.2 4.8 0.00 0.00 0.00 94 1017.8
20260906134357 22 270 3.2 6.4 0.00 0.00 0.00 94 1017.9
20260906133852 21 90 0.0 0.0 0.00 0.00 0.00 96 1017.9
20260906133348 21 270 0.0 4.8 0.00 0.00 0.00 96 1017.8
20260906132843 20 334 3.2 4.8 0.00 0.00 0.00 96 1017.8
20260906132338 20 292 0.0 4.8 0.00 0.00 0.00 96 1018.1
20260906131834 20 195 0.0 9.7 0.00 0.00 0.00 96 1017.6
20260906131329 20 230 8.0 12.9 0.00 0.00 0.00 96 1017.7
20260906130825 21 199 6.4 9.7 0.00 0.00 0.00 97 1017.9
20260906130324 20 168 8.0 9.7 0.00 0.00 0.00 96 1018.0
20260906125824 20 169 3.2 4.8 0.00 0.00 0.00 96 1018.0
20260906125321 20 206 1.6 9.7 0.00 0.00 0.00 96 1017.9
20260906124816 20 250 4.8 4.8 0.00 0.00 0.00 96 1017.5
20260906124312 20 199 8.0 30.6 0.00 0.00 0.00 97 1017.5
20260906123811 20 259 8.0 19.3 0.00 0.00 0.00 98 1017.9
20260906123306 20 223 11.3 19.3 0.00 0.00 0.00 98 1017.6
20260906122806 20 126 9.7 20.9 0.00 0.00 0.00 98 1016.7
20260906122301 20 118 6.4 43.5 0.00 0.00 0.00 98 1016.0
20260906121757 20 134 6.4 32.2 0.00 0.00 0.00 98 1016.0
20260906121248 19 149 19.3 38.6 0.00 0.00 0.00 98 1016.5
20260906120743 20 133 9.7 24.1 0.00 0.00 0.00 98 1017.0
20260906120240 20 123 11.3 17.7 0.00 0.00 0.00 98 1017.5
20260906115735 19 90 11.3 19.3 0.00 0.00 0.00 98 1017.3
20260906115230 18 75 6.4 9.7 0.00 0.00 0.00 98 1017.4
20260906114729 19 63 4.8 8.0 0.00 0.00 0.00 98 1017.7
20260906114224 18 94 4.8 4.8 0.00 0.00 0.00 98 1017.8
20260906113720 18 107 4.8 8.0 0.00 0.00 0.00 98 1017.8
20260906113218 18 123 6.4 9.7 0.00 0.00 0.00 98 1017.9
20260906112713 18 124 6.4 8.0 0.00 0.00 0.00 98 1018.1
20260906112210 18 128 4.8 4.8 0.00 0.00 0.00 98 1018.0
20260906111709 18 68 3.2 6.4 0.00 0.00 0.00 98 1018.0
20260906111204 18 129 4.8 4.8 0.00 0.00 0.00 98 1018.1
20260906110659 18 121 3.2 3.2 0.00 0.00 0.00 98 1018.3
20260906110154 18 157 0.0 3.2 0.00 0.00 0.00 98 1017.9
20260906105648 18 128 3.2 4.8 0.00 0.00 0.00 98 1017.6
20260906105144 18 140 4.8 4.8 0.00 0.00 0.00 98 1017.6
20260906104643 19 144 3.2 4.8 0.00 0.00 0.00 98 1017.7
20260906104142 18 95 3.2 6.4 0.00 0.00 0.00 98 1017.6
20260906103640 18 114 0.0 4.8 0.00 0.00 0.00 98 1017.5
20260906103136 18 103 1.6 6.4 0.00 0.00 0.00 98 1017.7
20260906102631 19 116 4.8 11.3 0.00 0.00 0.00 98 1017.6
20260906102125 19 120 4.8 6.4 0.00 0.00 0.00 98 1017.4
20260906101620 19 51 4.8 6.4 0.00 0.00 0.00 98 1017.2
20260906101120 18 57 3.2 3.2 0.00 0.00 0.00 98 1017.3
20260906100616 18 45 3.2 3.2 0.00 0.00 0.00 98 1017.4
20260906100111 18 84 3.2 6.4 0.00 0.00 0.00 98 1017.5
20260906095610 18 99 0.0 1.6 0.00 0.00 0.00 97 1017.6
20260906095106 18 90 0.0 3.2 0.00 0.00 0.00 97 1017.4
20260906094605 18 99 0.0 4.8 0.00 0.00 0.00 97 1017.5
20260906094101 18 105 0.0 4.8 0.00 0.00 0.00 97 1017.6
20260906093556 18 95 3.2 3.2 0.00 0.00 0.00 97 1017.6
20260906093051 18 98 3.2 4.8 0.00 0.00 0.00 97 1017.5
20260906092547 18 135 3.2 4.8 0.00 0.00 0.00 97 1017.5
20260906092041 18 90 0.0 0.0 0.00 0.00 0.00 97 1017.6
20260906091537 18 99 0.0 0.0 0.00 0.00 0.00 97 1017.4
20260906091033 18 114 3.2 3.2 0.00 0.00 0.00 96 1017.5
20260906090528 18 106 1.6 1.6 0.00 0.00 0.00 96 1017.4
20260906090023 18 90 0.0 0.0 0.00 0.00 0.00 96 1017.3
20260906085522 18 0 0.0 1.6 0.00 0.00 0.00 96 1017.4
20260906085021 18 73 3.2 4.8 0.00 0.00 0.00 96 1017.4
20260906084516 18 106 0.0 1.6 0.00 0.00 0.00 96 1017.5
20260906084015 18 90 0.0 1.6 0.00 0.00 0.00 96 1017.6
20260906083511 18 120 3.2 3.2 0.00 0.00 0.00 96 1017.5
20260906083010 18 106 1.6 3.2 0.00 0.00 0.00 95 1017.4
20260906082505 18 117 4.8 6.4 0.00 0.00 0.00 95 1017.6
20260906082001 18 119 4.8 4.8 0.00 0.00 0.00 95 1017.4
20260906081456 18 102 3.2 3.2 0.00 0.00 0.00 94 1017.6
20260906080952 18 180 0.0 4.8 0.00 0.00 0.00 94 1017.8
20260906080448 18 151 0.0 1.6 0.00 0.00 0.00 94 1017.5
20260906075943 18 157 1.6 3.2 0.00 0.00 0.00 94 1017.6
20260906075438 19 145 1.6 3.2 0.00 0.00 0.00 94 1017.4
20260906074933 19 139 0.0 3.2 0.00 0.00 0.00 94 1017.5
20260906074433 19 130 4.8 4.8 0.00 0.00 0.00 94 1017.4
20260906073931 19 100 3.2 6.4 0.00 0.00 0.00 94 1017.4
20260906073426 19 121 3.2 4.8 0.00 0.00 0.00 93 1017.3
20260906072923 20 172 0.0 1.6 0.00 0.00 0.00 93 1017.3
20260906072418 20 123 3.2 8.0 0.00 0.00 0.00 93 1017.3
20260906071914 20 124 4.8 4.8 0.00 0.00 0.00 93 1017.2
20260906071409 20 79 3.2 4.8 0.00 0.00 0.00 93 1017.1
20260906070905 20 83 4.8 4.8 0.00 0.00 0.00 93 1017.7
20260906070401 20 115 3.2 6.4 0.00 0.00 0.00 92 1017.5
20260906065856 20 110 6.4 6.4 0.00 0.00 0.00 92 1017.3
20260906065350 20 108 3.2 8.0 0.00 0.00 0.00 92 1017.3
20260906064846 20 112 3.2 6.4 0.00 0.00 0.00 92 1017.5
20260906064343 20 124 8.0 9.7 0.00 0.00 0.00 91 1017.4
20260906063842 20 125 8.0 9.7 0.00 0.00 0.00 91 1017.6
20260906063338 20 124 8.0 8.0 0.00 0.00 0.00 91 1017.7
20260906062833 19 123 4.8 9.7 0.00 0.00 0.00 91 1017.6
20260906062332 19 82 4.8 6.4 0.00 0.00 0.00 91 1017.7
20260906061828 19 112 4.8 8.0 0.00 0.00 0.00 90 1017.8
20260906061324 19 132 8.0 8.0 0.00 0.00 0.00 90 1017.9
20260906060818 19 130 6.4 6.4 0.00 0.00 0.00 90 1018.1
20260906060317 19 171 3.2 6.4 0.00 0.00 0.00 90 1017.9
20260906055812 19 157 1.6 4.8 0.00 0.00 0.00 89 1017.9
20260906055307 20 132 3.2 3.2 0.00 0.00 0.00 89 1017.9
20260906054802 20 199 3.2 4.8 0.00 0.00 0.00 88 1017.9
20260906054258 20 95 3.2 4.8 0.00 0.00 0.00 88 1018.1
20260906053754 20 121 4.8 4.8 0.00 0.00 0.00 88 1018.0
20260906053250 20 133 4.8 4.8 0.00 0.00 0.00 89 1017.6
20260906052744 20 103 3.2 4.8 0.00 0.00 0.00 89 1017.6
20260906052240 20 90 3.2 3.2 0.00 0.00 0.00 89 1017.8
20260906051738 20 96 3.2 4.8 0.00 0.00 0.00 88 1017.8
20260906051237 20 90 0.0 3.2 0.00 0.00 0.00 87 1017.8
20260906050732 20 79 3.2 4.8 0.00 0.00 0.00 87 1017.8
20260906050227 20 90 0.0 1.6 0.00 0.00 0.00 86 1017.8
20260906045726 20 157 0.0 3.2 0.00 0.00 0.00 85 1017.8
20260906045221 20 154 0.0 3.2 0.00 0.00 0.00 86 1017.8
20260906044717 20 84 0.0 4.8 0.00 0.00 0.00 85 1018.0
20260906044212 20 131 0.0 3.2 0.00 0.00 0.00 84 1018.0
20260906043708 20 90 0.0 3.2 0.00 0.00 0.00 84 1017.8
20260906043204 21 109 1.6 3.2 0.00 0.00 0.00 84 1017.8
20260906042703 20 114 4.8 4.8 0.00 0.00 0.00 84 1017.7
20260906042157 20 97 1.6 3.2 0.00 0.00 0.00 84 1017.7
20260906041653 20 90 1.6 3.2 0.00 0.00 0.00 84 1017.5
20260906041148 20 90 1.6 4.8 0.00 0.00 0.00 83 1017.7
20260906040643 21 140 0.0 3.2 0.00 0.00 0.00 82 1017.6
20260906040139 21 121 3.2 4.8 0.00 0.00 0.00 82 1017.4
20260906035633 21 114 0.0 3.2 0.00 0.00 0.00 81 1017.6
20260906035129 21 79 3.2 3.2 0.00 0.00 0.00 81 1017.3
20260906034624 21 126 4.8 8.0 0.00 0.00 0.00 81 1017.4
20260906034118 21 140 3.2 3.2 0.00 0.00 0.00 81 1017.8
20260906033614 21 172 3.2 4.8 0.00 0.00 0.00 81 1017.6
20260906033109 21 108 4.8 4.8 0.00 0.00 0.00 81 1017.5
20260906032606 21 135 0.0 3.2 0.00 0.00 0.00 80 1017.5
20260906032105 21 119 4.8 8.0 0.00 0.00 0.00 79 1017.4
20260906031601 21 131 4.8 8.0 0.00 0.00 0.00 79 1017.5
20260906031056 21 90 1.6 1.6 0.00 0.00 0.00 78 1017.6
20260906030555 21 133 4.8 6.4 0.00 0.00 0.00 78 1017.3
20260906030055 22 77 4.8 4.8 0.00 0.00 0.00 77 1017.3
20260906025550 22 135 3.2 6.4 0.00 0.00 0.00 76 1017.1
20260906025048 22 114 8.0 8.0 0.00 0.00 0.00 76 1017.3
20260906024544 22 119 3.2 9.7 0.00 0.00 0.00 75 1017.3
20260906024043 22 144 3.2 8.0 0.00 0.00 0.00 74 1017.3
20260906023540 22 119 3.2 9.7 0.00 0.00 0.00 74 1017.4
20260906023034 22 7 3.2 8.0 0.00 0.00 0.00 74 1017.3
20260906022530 22 180 1.6 4.8 0.00 0.00 0.00 74 1017.2
20260906022025 22 180 0.0 0.0 0.00 0.00 0.00 74 1017.1
20260906021520 22 203 0.0 3.2 0.00 0.00 0.00 74 1016.9
20260906021014 22 151 0.0 3.2 0.00 0.00 0.00 73 1016.9
20260906020514 22 102 3.2 4.8 0.00 0.00 0.00 73 1016.5
20260906020013 23 114 3.2 9.7 0.00 0.00 0.00 72 1016.7
20260906015507 23 114 1.6 8.0 0.00 0.00 0.00 71 1016.5
20260906015007 23 119 3.2 6.4 0.00 0.00 0.00 71 1016.4
20260906014501 23 111 9.7 11.3 0.00 0.00 0.00 70 1016.3
20260906013957 24 117 6.4 8.0 0.00 0.00 0.00 69 1016.4
20260906013453 24 133 4.8 8.0 0.00 0.00 0.00 69 1016.5
20260906012948 24 143 3.2 14.5 0.00 0.00 0.00 68 1016.3
20260906012443 25 137 8.0 12.9 0.00 0.00 0.00 68 1016.4
20260906011942 25 123 4.8 16.1 0.00 0.00 0.00 67 1016.2
20260906011438 25 146 4.8 14.5 0.00 0.00 0.00 67 1016.0
20260906010933 26 135 8.0 12.9 0.00 0.00 0.00 65 1016.1
20260906010428 26 138 8.0 24.1 0.00 0.00 0.00 63 1016.0
20260906005924 27 141 11.3 19.3 0.00 0.00 0.00 59 1016.0
20260906005424 27 107 11.3 20.9 0.00 0.00 0.00 56 1016.1
20260906004922 28 120 4.8 11.3 0.00 0.00 0.00 56 1015.9
20260906004417 28 135 3.2 4.8 0.00 0.00 0.00 54 1015.6
20260906003912 28 103 0.0 6.4 0.00 0.00 0.00 55 1015.7
20260906003408 29 180 0.0 3.2 0.00 0.00 0.00 54 1015.6
20260906002903 29 209 0.0 3.2 0.00 0.00 0.00 53 1015.5
20260906002402 29 123 3.2 4.8 0.00 0.00 0.00 54 1015.8
20260906001858 29 135 3.2 6.4 0.00 0.00 0.00 53 1015.8
20260906001353 29 116 4.8 8.0 0.00 0.00 0.00 53 1015.7
20260906000848 29 126 0.0 8.0 0.00 0.00 0.00 53 1015.8
20260906000348 29 141 4.8 11.3 0.00 0.00 0.00 53 1015.9
20260905235843 30 132 6.4 12.9 0.00 0.00 0.00 52 1015.8
20260905235337 30 141 4.8 14.5 0.00 0.00 0.00 52 1016.0
20260905234833 30 123 8.0 14.5 0.00 0.00 0.00 54 1016.1
20260905234328 30 135 6.4 11.3 0.00 0.00 0.00 56 1016.2
20260905233823 30 134 6.4 17.7 0.00 0.00 0.00 56 1016.2
20260905233318 30 141 9.7 27.4 0.00 0.00 0.00 58 1016.4
20260905232817 30 115 11.3 25.7 0.00 0.00 0.00 57 1016.7
20260905232313 30 120 22.5 22.5 0.00 0.00 0.00 60 1016.4
20260905231809 29 142 4.8 17.7 0.00 0.00 0.00 63 1016.4
20260905231304 29 140 16.1 22.5 0.00 0.00 0.00 63 1016.9
20260905230800 30 153 14.5 22.5 0.00 0.00 0.00 63 1016.7
20260905230258 31 129 14.5 29.0 0.00 0.00 0.00 58 1016.7
20260905225757 32 139 16.1 27.4 0.00 0.00 0.00 55 1016.4
20260905225252 33 117 17.7 17.7 0.00 0.00 0.00 48 1016.5
20260905224752 33 137 9.7 20.9 0.00 0.00 0.00 49 1016.5
20260905224248 33 158 11.3 17.7 0.00 0.00 0.00 47 1016.2
20260905223743 34 134 14.5 19.3 0.00 0.00 0.00 46 1016.3
20260905223240 35 131 11.3 12.9 0.00 0.00 0.00 46 1016.0
20260905222736 34 126 11.3 19.3 0.00 0.00 0.00 46 1016.0
20260905222234 34 120 8.0 12.9 0.00 0.00 0.00 46 1015.7
20260905221730 34 131 4.8 16.1 0.00 0.00 0.00 45 1015.3
20260905221227 33 120 11.3 17.7 0.00 0.00 0.00 46 1015.2
20260905220723 35 106 4.8 20.9 0.00 0.00 0.00 45 1015.3
20260905220219 35 125 20.9 20.9 0.00 0.00 0.00 44 1015.4
20260905215718 35 180 3.2 12.9 0.00 0.00 0.00 44 1015.1
20260905215214 35 166 9.7 9.7 0.00 0.00 0.00 42 1015.3
20260905214710 36 210 8.0 9.7 0.00 0.00 0.00 41 1015.3
20260905214205 35 139 3.2 14.5 0.00 0.00 0.00 44 1015.5
20260905213700 35 126 6.4 8.0 0.00 0.00 0.00 43 1015.7
20260905213156 34 152 3.2 11.3 0.00 0.00 0.00 44 1016.0
20260905212651 34 144 6.4 11.3 0.00 0.00 0.00 45 1015.8
20260905212150 33 140 4.8 14.5 0.00 0.00 0.00 45 1016.4
20260905211644 34 116 11.3 14.5 0.00 0.00 0.00 44 1016.1
20260905211140 34 125 3.2 17.7 0.00 0.00 0.00 44 1016.1
20260905210637 35 135 14.5 17.7 0.00 0.00 0.00 43 1016.2